This is the latest recevied weather packets stored in our database for station/object OK3MS-5. If no packets are shown the sender has not sent any weather packets the latest 10 day(s).
| Time | Temp. | Humidity | Pressure | Rain* | Wind** | Luminosity | Snow |
|---|---|---|---|---|---|---|---|
| 1787737204 | 23.33° C | 61% | 1016.1 hPa | 0 mm | - | 645 W/m² | - |
| 1787736903 | 22.78° C | 59% | 1016 hPa | 0 mm | - | 721 W/m² | - |
| 1787736604 | 22.78° C | 61% | 1016.2 hPa | 0 mm | - | 694 W/m² | - |
| 1787736304 | 22.22° C | 61% | 1016.2 hPa | 0 mm | - | 600 W/m² | - |
| 1787736004 | 22.22° C | 62% | 1016.4 hPa | 0 mm | - | 692 W/m² | - |
| 1787735703 | 22.22° C | 63% | 1016.5 hPa | 0 mm | - | 632 W/m² | - |
| 1787735403 | 21.67° C | 63% | 1016.5 hPa | 0 mm | - | 446 W/m² | - |
| 1787735102 | 21.67° C | 66% | 1016.5 hPa | 0 mm | - | 671 W/m² | - |
| 1787734804 | 21.67° C | 66% | 1016.5 hPa | 0 mm | - | 660 W/m² | - |
| 1787734506 | 21.67° C | 63% | 1016.7 hPa | 0 mm | - | 470 W/m² | - |
| 1787734204 | 20.56° C | 66% | 1016.8 hPa | 0 mm | - | 563 W/m² | - |
| 1787733907 | 20.56° C | 68% | 1016.9 hPa | 0 mm | - | 607 W/m² | - |
| 1787733603 | 20° C | 68% | 1016.8 hPa | 0 mm | - | 329 W/m² | - |
| 1787733305 | 20° C | 68% | 1016.8 hPa | 0 mm | - | 585 W/m² | - |
| 1787733003 | 20° C | 67% | 1016.8 hPa | 0 mm | - | 396 W/m² | - |
| 1787732703 | 20° C | 69% | 1016.9 hPa | 0 mm | - | 508 W/m² | - |
| 1787732404 | 19.44° C | 68% | 1017 hPa | 0 mm | - | 477 W/m² | - |
| 1787732106 | 20° C | 68% | 1017 hPa | 0 mm | - | 462 W/m² | - |
| 1787731804 | 19.44° C | 69% | 1017 hPa | 0 mm | - | 460 W/m² | - |
| 1787731504 | 18.89° C | 71% | 1016.8 hPa | 0 mm | - | 412 W/m² | - |
| 1787731203 | 18.89° C | 71% | 1016.9 hPa | 0 mm | - | 417 W/m² | - |
| 1787730903 | 19.44° C | 68% | 1016.8 hPa | 0 mm | - | 408 W/m² | - |
| 1787730604 | 18.89° C | 70% | 1016.8 hPa | 0 mm | - | 397 W/m² | - |
| 1787730304 | 18.89° C | 70% | 1016.7 hPa | 0 mm | - | 383 W/m² | - |
| 1787730005 | 18.89° C | 70% | 1016.9 hPa | 0 mm | - | 167 W/m² | - |
* Rain latest hour (hover to see other rain measurements)
** Current wind speed in m/s (hover to see current wind gust speed)